Regional Weather Roundup
Issued by NWS

Home | Current Version | Previous Version | Text Only | Print | Product List | Glossary Off
Versions: 1 2 3 4 5 6 7 8 9 10 11 12 13 14 15 16 17 18 19 20 21 22 23 24 25 26 27

000
ASUS45 KCYS 191710
RWRWY

WYOMING REGIONAL WEATHER ROUNDUP
NATIONAL WEATHER SERVICE CHEYENNE WY
1000 AM MST THU JAN 19 2017

NOTE:  "FAIR" INDICATES FEW OR NO CLOUDS BELOW 12,000 FEET
WITH NO SIGNIFICANT WEATHER AND/OR OBSTRUCTIONS TO VISIBILITY.

WYZ001-191800-
YELLOWSTONE NATIONAL PARK

CITY           SKY/WX    TMP DP  RH WIND       PRES   REMARKS
LK YELLOWSTONE   N/A     24  22  91 CALM      29.70S
W YELLOWSTONE  NOT AVBL

$$
WYZ002>013-054>058-071-098>099-191800-
NORTHERN WYOMING

CITY           SKY/WX    TMP DP  RH WIND       PRES   REMARKS
JACKSON        LGT SNOW  14  12  92 CALM      29.73R VSB 1
CODY           FAIR      45  25  45 W13G22    29.57F
GREYBULL       FAIR       9   3  77 NW7       29.64R WCI  -2
WORLAND        FAIR      13   9  84 CALM      29.62S
SHERIDAN       FAIR      25  18  74 MISG      29.52S
BUFFALO        FAIR      48  19  31 NW13      29.52R
GILLETTE       FAIR      41  21  44 SW28G38   29.47F
HULETT         FAIR      36  21  55 SW7       29.52F WCI  30
NEWCASTLE      FAIR      32  19  59 E3        29.57R

$$
WYZ014>020-022>026-101>103-191800-
CENTRAL WYOMING

CITY           SKY/WX    TMP DP  RH WIND       PRES   REMARKS
BIG PINEY      CLOUDY     5   1  83 CALM      29.75R
PINEDALE       CLOUDY     9   3  78 CALM      29.75R
DUBOIS         NOT AVBL
LANDER         FAIR      14  10  84 CALM      29.66S
RIVERTON       FAIR      10   5  80 CALM      29.67R
CASPER         FAIR      36  22  56 SW28G40   29.64R WCI  23
DOUGLAS        FAIR      46  21  37 NW14      29.56S

$$
WYZ021-027>030-104>119-191800-
SOUTHERN WYOMING

CITY           SKY/WX    TMP DP  RH WIND       PRES   REMARKS
EVANSTON       LGT SNOW  26  20  77 SW12      29.73R WCI  16
ROCK SPRINGS   CLOUDY     3   0  87 CALM      29.76R
RAWLINS        FAIR      26  18  71 SW18      29.75R WCI  13
LARAMIE        FAIR      23  14  68 NE6       29.68R WCI  16
CHEYENNE       FAIR      50  13  22 W6        29.60R
TORRINGTON     FAIR      39  21  48 E6        29.56F WCI  35

$$




USA.gov is the U.S. government's official web portal to all federal, state and local government web resources and services.